Location: Zusmarshausen
(48.4001°N, 10.5992°E)
Time: 04:35:30
(UTC+00:00)

Daily predictions for brighter satellites

Satellite Brightness Start Highest point End
(mag) Time Altitude Azimuth Time Altitude Azimuth Time Altitude Azimuth
Resurs 1-4 Rocket 4.1 00:01:05 10° NE 00:04:42 18° E 00:04:50 18° E
Cosmos 1464 Rocket 4.1 00:00:50 10° NNW 00:06:35 68° NW 00:06:35 68° NW
Cosmos 909 Rocket 4.4 00:06:56 75° SSW 00:07:44 88° SE 00:16:58 10° NE
Cosmos 2360 Rocket 3.0 00:09:55 43° ENE 00:09:55 43° ENE 00:14:17 10° NE
Aureole 3 Rocket 4.5 00:06:44 10° N 00:10:25 39° NNE 00:10:25 39° NNE
Lacrosse 4 Rocket 3.4 00:15:02 25° NNE 00:15:02 25° NNE 00:16:57 10° NNE
Cosmos 2263 Rocket 4.4 00:09:26 10° WNW 00:10:39 14° WNW 00:10:39 14° WNW
NOSS 3-4 (A) 4.4 00:16:26 33° E 00:16:26 33° E 00:20:37 10° NE
NOSS 3-4 (C) 4.4 00:16:29 32° E 00:16:29 32° E 00:20:40 10° NE
Cosmos 2322 Rocket 2.5 00:19:32 61° NE 00:19:32 61° NE 00:24:15 10° NNE
Cosmos 2034 Rocket 4.0 00:19:39 10° NNW 00:25:21 71° NW 00:25:21 71° NW
IDEFIX/ARIANE 42P 3.8 00:21:18 10° NNE 00:25:44 31° E 00:25:44 31° E
NOSS 3-2 (C) 4.0 00:19:18 10° NW 00:26:40 64° WSW 00:26:40 64° WSW
Cosmos 2219 Rocket 3.3 00:27:21 34° E 00:27:21 34° E 00:31:54 10° NE
SL-16 R/B 2.5 00:35:17 59° NW 00:35:17 59° NW 00:40:36 10° NNE
Cosmos 1844 4.4 00:29:39 10° NNW 00:33:46 45° NW 00:33:46 45° NW
USA 267 3.4 00:42:48 56° W 00:42:48 56° W 00:48:06 10° WNW
GEOS 3 Rocket 4.4 00:49:53 42° WNW 00:49:53 42° WNW 00:53:25 10° NW
Meteor 1-26 Rocket 4.3 00:48:58 72° E 00:48:59 72° E 00:54:46 10° NNE
Cosmos 1634 Rocket 3.8 00:45:15 10° N 00:51:37 89° WSW 00:52:05 78° S
ADEOS II 3.5 00:47:44 10° NE 00:52:15 28° E 00:53:12 27° ESE
Timation 2 Rocket 4.2 00:47:06 10° NW 00:53:00 59° W 00:53:00 59° W
SL-16 R/B 3.6 00:51:35 15° SE 00:56:21 41° ENE 01:02:07 10° N
Cosmos 1980 Rocket 4.4 00:57:35 12° WNW 01:00:12 16° NW 01:03:37 10° N
Cosmos 1844 Rocket 4.1 00:55:19 10° NW 00:58:03 25° WNW 00:58:03 25° WNW
CZ-2D R/B 2.6 00:58:35 10° NNE 01:03:49 52° E 01:04:21 50° ESE
Meteor 1-5 Rocket 4.4 00:58:56 10° NNW 01:04:15 63° WNW 01:04:15 63° WNW
Cosmos 1842 Rocket 4.3 01:13:46 46° E 01:13:46 46° E 01:17:57 10° NNE
Cosmos 1900 4.4 01:08:45 10° NW 01:13:52 75° NE 01:14:28 66° ESE
Cosmos 1943 Rocket 4.3 01:13:42 10° NNW 01:18:28 27° NE 01:23:13 10° ESE
COSMOS 2428 3.3 01:22:41 42° SE 01:23:49 48° ESE 01:29:16 10° NE
USA 238 DEB 4.1 01:18:57 10° NW 01:25:59 48° WSW 01:26:01 48° WSW
USA 238 4.1 01:19:02 10° NW 01:26:06 48° WSW 01:26:14 48° WSW
IRIDIUM 104 4.3 01:21:14 10° N 01:26:29 82° E 01:27:10 67° SSE
Meteor 1-11 Rocket 4.4 01:24:44 10° N 01:30:11 51° ENE 01:34:01 19° SE
Cosmos 2237 Rocket 4.0 01:29:23 16° SE 01:32:09 24° ESE 01:36:34 10° NE
CZ-2C R/B 2.5 01:31:23 61° S 01:32:23 85° WSW 01:37:48 10° NNW
Cosmos 489 Rocket 4.4 01:27:19 10° NNW 01:33:30 59° WSW 01:34:06 57° SW
IRIDIUM 114 4.2 01:30:23 10° N 01:35:39 84° W 01:36:18 68° SSW
BREEZE-M DEB (TANK) 4.2 01:37:58 16° E 01:37:58 16° E 01:38:28 10° E
Cosmos 1867 3.6 01:31:28 10° NW 01:37:00 78° NE 01:42:28 10° SE
CZ-2C R/B 3.3 01:32:56 10° NNE 01:37:59 62° ESE 01:39:23 45° SSE
NPP 3.6 01:33:26 10° N 01:38:47 68° WNW 01:39:31 60° WSW
Cosmos 2221 3.3 01:40:19 39° NW 01:40:19 39° NW 01:43:39 10° N
Cosmos 2322 3.7 01:38:31 56° S 01:39:43 77° ESE 01:45:28 10° NNE
AQUA 4.2 01:35:13 10° NNE 01:39:55 58° E 01:40:52 48° SSE
Cosmos 2279 Rocket 4.0 01:35:48 10° NNW 01:41:55 58° W 01:42:59 51° SW
Cosmos 2333 4.5 01:42:17 46° W 01:43:14 51° NW 01:48:43 10° NNE
IRIDIUM 103 4.2 01:39:34 10° N 01:44:47 71° W 01:45:25 63° SW
Resurs 1-4 Rocket 2.0 01:39:44 10° N 01:45:02 71° WNW 01:45:54 59° SW
Lacrosse 5 2.1 01:44:47 51° W 01:45:47 63° NNW 01:50:54 10° NE
COSMOS 2441 4.3 01:42:12 10° NNE 01:47:08 90° SE 01:47:56 63° SSW
Cosmos 2333 Rocket 2.9 01:46:53 36° W 01:48:05 41° NW 01:53:26 10° NNE
Nadezhda 4 Rocket 4.0 01:45:46 36° S 01:48:22 73° E 01:54:29 10° NNE
ALOS 3.1 01:44:28 10° NNE 01:48:56 45° E 01:50:36 32° SSE
USA 215 3.9 01:42:50 10° NE 01:49:07 51° NNW 01:53:22 21° W
Cosmos 44 Rocket 3.4 01:48:57 60° WSW 01:49:49 74° NW 01:55:00 10° NE
Lacrosse 4 Rocket 4.0 01:51:16 10° NW 01:52:17 11° NNW 01:53:19 10° NNW
Cosmos 972 Rocket 4.2 01:51:40 53° WSW 01:52:40 62° WNW 01:57:46 10° NNE
Cosmos 2360 Rocket 3.2 01:51:39 30° WNW 01:53:03 34° NW 01:58:10 10° NNE
Molniya-1 4.2 01:52:55 52° SSW 01:54:10 85° SE 02:05:36 10° NE
NOSS 0 Rocket 4.5 01:52:16 30° S 01:55:02 50° ESE 02:00:57 10° NE
Cosmos 1743 4.5 01:52:33 10° NNW 01:54:04 21° NW 01:54:04 21° NW
Sich 1 3.4 01:54:58 10° N 01:59:10 59° ENE 02:01:15 28° SSE
BlueWalker 3 2.3 01:58:05 41° NW 01:59:12 61° NNE 02:03:00 10° ESE
SAR-Lupe-1 4.0 01:57:38 10° NNE 02:01:17 81° ESE 02:01:17 81° ESE
Meteor 2-17 Rocket 4.5 01:58:13 31° S 02:01:18 78° E 02:07:26 10° NNE
Cosmos 2278 Rocket 2.3 01:56:32 10° NNW 02:02:15 76° ENE 02:07:55 10° SSE
Cosmos 2344 4.0 01:54:29 10° NW 02:02:51 88° SW 02:14:28 10° SE
Cosmos 2322 Rocket 3.7 02:01:19 20° WNW 02:03:16 24° NW 02:07:50 10° N
IDEFIX/ARIANE 42P 3.1 02:00:42 10° N 02:05:31 40° WNW 02:06:30 37° W
NOSS 3-4 (A) 3.7 02:03:50 35° W 02:05:55 51° NW 02:11:57 10° NE
NOSS 3-4 (C) 3.7 02:03:53 35° W 02:05:58 52° NW 02:12:01 10° NE
Cosmos 1743 Rocket 3.7 02:02:48 10° N 02:07:09 69° E 02:09:28 26° SSE
Cosmos 1538 Rocket 4.0 02:07:18 42° SSW 02:09:13 86° ESE 02:14:35 10° NNE
Cosmos 2219 Rocket 2.8 02:09:03 34° W 02:10:43 43° NW 02:16:04 10° NNE
Cosmos 1536 2.6 02:07:07 10° NNW 02:10:59 68° W 02:11:03 68° WSW
Okean 3 Rocket 4.3 02:07:07 10° NNW 02:10:56 37° W 02:10:56 37° W
MSX 4.3 02:06:50 10° N 02:12:20 46° WNW 02:14:08 35° WSW
SAR-Lupe-4 3.4 02:08:49 10° N 02:12:22 70° WNW 02:12:23 70° WNW
Cosmos 192 4.3 02:08:00 10° NNW 02:12:56 85° ENE 02:17:50 10° SSE
Gbstr 26 Del rocket 2.7 02:13:49 61° SW 02:14:29 80° SSE 02:18:20 10° ENE
EO 1 Delta rocket 4.3 02:12:21 10° NNE 02:17:00 57° E 02:20:08 20° S
Meteor 2-10 4.3 02:11:23 10° N 02:17:01 80° ENE 02:22:44 10° SSE
COBE Rocket 4.4 02:13:56 10° N 02:18:17 39° WNW 02:19:05 36° W
GP-B 3.0 02:14:41 10° N 02:19:07 77° W 02:20:37 41° SSW
Meteor 1-28 Rocket 4.1 02:20:06 32° WNW 02:20:06 32° WNW 02:22:38 10° NNW
SL-16 R/B 4.3 02:17:07 10° WNW 02:20:20 16° NW 02:23:41 10° N
NOSS 2-2 (E) 3.9 02:20:55 10° NW 02:25:22 72° SW 02:31:42 10° SSE
Cosmos 1726 3.2 02:25:41 10° NNW 02:27:30 26° NW 02:27:30 26° NW
BREEZE-M DEB (TANK) 3.5 02:27:07 30° WNW 02:28:52 81° N 02:38:44 10° E
Okean 1 3.1 02:29:45 48° SW 02:30:36 65° W 02:34:24 10° N
Cosmos 1092 Rocket 4.0 02:26:21 17° S 02:31:12 82° E 02:37:23 10° N
CZ-2C R/B 3.6 02:26:49 10° NNE 02:31:46 44° E 02:36:39 10° S
ADEOS II 2.5 02:27:04 10° N 02:32:03 45° WNW 02:34:05 31° WSW
Meteor 1-19 Rocket 4.3 02:30:32 22° S 02:34:34 88° W 02:40:38 10° NNE
FENGYUN 3A 4.0 02:29:28 10° N 02:34:43 51° WNW 02:37:10 29° SW
Cosmos 2026 Rocket 4.0 02:33:58 16° S 02:39:05 89° W 02:45:30 10° N
Cosmos 1461 2.6 02:35:33 10° NW 02:39:21 58° WSW 02:43:05 10° SSE
NOSS 2-2 (D) 3.8 02:35:22 10° NW 02:39:45 74° SW 02:45:56 10° SSE
SL-16 R/B 2.9 02:36:39 24° SSW 02:39:55 41° W 02:45:47 10° NNW
Kosmos-1783 4.3 02:42:15 24° NE 02:42:15 24° NE 02:43:10 10° NE
ATLAS 5 CENTAUR R/B 3.4 02:38:45 10° NNW 02:43:11 39° NE 02:48:34 10° ESE
RESURS DK-1 2.4 02:41:52 35° SW 02:43:23 63° WNW 02:47:26 10° NNE
Cosmos 1151 Rocket 2.9 02:40:49 24° S 02:43:24 86° WNW 02:47:44 10° N
CZ-2D R/B 3.3 02:39:06 10° N 02:43:33 27° WNW 02:45:38 21° W
Cosmos 923 Rocket 4.1 02:42:04 20° SSW 02:45:43 79° ESE 02:51:01 10° NNE
Envisat 3.1 02:44:20 10° NNE 02:49:26 77° ESE 02:54:11 12° S
Cosmos 921 Rocket 4.2 02:50:22 10° S 02:54:19 40° ESE 02:58:23 10° NNE
Cosmos 1975 2.7 02:55:53 10° N 02:59:45 88° ENE 03:03:37 10° S
Meteor 1-27 Rocket 4.0 02:56:58 19° SW 03:00:59 53° WNW 03:06:34 10° N
Cosmos 1371 Rocket 4.0 02:56:41 10° NNW 03:01:57 87° ENE 03:07:14 10° SSE
Cosmos 1943 Rocket 2.1 02:57:03 10° NNW 03:02:42 67° WSW 03:08:18 10° SSE
Cosmos 1340 2.4 03:00:02 10° N 03:03:29 81° ENE 03:06:55 10° SSE
ATLAS 2AS CENTAUR R/B 3.6 02:58:17 10° S 03:05:22 49° ESE 03:12:12 10° NE
Thor Agena Rocket 3.6 03:00:40 10° NNE 03:05:44 78° ESE 03:10:47 10° SSW
Meteor 2-4 Rocket 3.7 03:01:12 10° S 03:06:35 81° E 03:12:08 10° NNE
COSMOS 2428 3.6 03:04:40 18° WSW 03:08:14 35° NW 03:13:26 10° NNE
NOAA 11 4.2 03:03:25 10° NNE 03:08:54 88° WNW 03:14:22 10° SSW
H-2A R/B 3.8 03:04:53 10° NNE 03:09:17 30° E 03:13:44 10° SSE
CZ-4 R/B 3.9 03:04:54 10° N 03:09:37 59° WNW 03:13:28 15° SSW
Cosmos 1626 2.8 03:07:33 10° S 03:10:43 48° E 03:13:55 10° NNE
CZ-2C R/B 4.4 03:12:51 13° W 03:13:24 14° W 03:16:02 10° WNW
Cosmos 1666 Rocket 3.5 03:09:20 10° NNW 03:13:46 67° W 03:18:10 10° S
Cosmos 2237 Rocket 2.3 03:11:13 16° SW 03:15:45 63° WNW 03:21:25 10° NNE
Cosmos 1980 3.9 03:12:33 16° SW 03:17:00 59° WNW 03:22:36 10° NNE
CZ-2C R/B 4.5 03:13:38 10° NNW 03:17:27 22° WNW 03:20:25 14° WSW
Intercosmos 25 Rocket 3.4 03:17:34 10° NNW 03:20:51 53° W 03:25:19 10° S
Cosmos 2369 Rocket 3.5 03:15:29 10° NNW 03:20:52 44° NE 03:26:12 10° SE
S3M 4.4 03:16:04 10° N 03:22:14 69° E 03:28:25 10° SSE
Resurs 1-4 Rocket 4.1 03:21:25 10° NNW 03:23:54 14° NW 03:26:24 10° W
Cosmos 2112 Rocket 4.0 03:19:57 10° SSW 03:25:17 79° WNW 03:30:40 10° NNE
ALOS 3.5 03:22:12 10° N 03:25:56 25° WNW 03:28:56 13° WSW
DMSP B5D2-2 4.0 03:23:30 10° S 03:28:39 65° WSW 03:33:50 10° NNW
Lacrosse 5 3.3 03:24:55 10° WNW 03:29:32 32° N 03:34:08 10° NE
USA 215 4.3 03:25:23 10° ENE 03:31:27 42° N 03:37:31 10° WNW
CRYOSAT 2 4.5 03:28:29 10° N 03:33:23 84° E 03:38:16 10° S
Cosmos 2333 Rocket 4.4 03:31:51 10° NW 03:34:01 12° NNW 03:36:11 10° N
Cosmos 2266 Rocket 4.2 03:28:23 10° S 03:34:26 72° E 03:40:27 10° NNE
YAOGAN 6 2.8 03:33:25 10° N 03:36:32 41° WNW 03:39:39 10° SW
BlueWalker 3 2.5 03:33:49 10° WNW 03:37:19 35° SW 03:40:49 10° SSE
IRS-1D 3.6 03:32:26 10° N 03:37:26 62° WNW 03:42:31 10° SSW
Cosmos 1842 4.3 03:37:10 10° SSE 03:40:45 46° E 03:44:21 10° NNE
USA 290 2.0 03:42:04 10° NNW 03:45:10 80° WSW 03:48:14 10° SSE
Cosmos 2278 Rocket 3.5 03:41:46 10° NW 03:45:40 19° W 03:49:31 10° SW
Cosmos 1328 Rocket 3.9 03:41:45 10° SSW 03:46:01 46° WNW 03:50:18 10° N
Cosmos 1340 Rocket 3.6 03:43:27 10° SW 03:46:53 31° WNW 03:50:23 10° N
Cosmos 2315 Rocket 4.3 03:42:07 10° N 03:48:21 74° E 03:54:32 10° SSE
NOSS 3-1 (C) 4.1 03:41:20 10° NW 03:48:37 78° SW 03:57:29 10° SSE
Cosmos 1633 Rocket 3.8 03:48:02 10° NNW 03:51:55 32° W 03:55:48 10° SSW
Cosmos 1680 Rocket 4.1 03:47:36 10° SW 03:52:37 42° WNW 03:57:42 10° NNE
Cosmos 1553 Rocket 4.4 03:48:58 10° NNW 03:54:47 40° W 04:00:29 10° SSW
Cosmos 2219 Rocket 4.3 03:53:59 10° NW 03:56:14 12° NNW 03:58:30 10° N
ARIANE 5 R/B 4.1 03:52:35 10° NNE 03:57:30 39° E 04:02:22 10° SSE
Cosmos 1470 2.8 03:56:32 10° N 04:00:22 81° E 04:04:09 10° SSE
Gbstr 26 Del rocket 3.3 03:57:16 10° W 04:01:11 50° N 04:04:49 10° ENE
